Overview Statistics Trail Chart Weather Telemetry Raw packets
 

This is the latest recevied weather packets stored in our database for station/object N6GPM. If no packets are shown the sender has not sent any weather packets the latest 10 day(s).

<< 32 33 34 35 36 37 38 >>
Time Temp. Humidity Pressure Rain* Wind** Luminosity Snow
1788459940 25° C 38% 1018.5 hPa 0 mm - 915 W/m² -
1788459636 24.44° C 41% 1018.6 hPa 0 mm - 906 W/m² -
1788459329 23.89° C 42% 1018.6 hPa 0 mm - 901 W/m² -
1788459029 23.89° C 41% 1018.6 hPa 0 mm - 888 W/m² -
1788458724 24.44° C 41% 1018.7 hPa 0 mm - 878 W/m² -
1788458424 23.89° C 41% 1018.5 hPa 0 mm - 865 W/m² -
1788458122 23.89° C 43% 1018.6 hPa 0 mm - 855 W/m² -
1788457822 24.44° C 43% 1018.6 hPa 0 mm - 842 W/m² -
1788457517 23.89° C 44% 1018.7 hPa 0 mm - 833 W/m² -
1788457212 22.78° C 46% 1018.8 hPa 0 mm - 818 W/m² -
1788456907 23.33° C 45% 1019 hPa 0 mm - 804 W/m² -
1788456603 23.33° C 46% 1018.6 hPa 0 mm - 791 W/m² -
1788456298 22.78° C 47% 1018.8 hPa 0 mm - 777 W/m² -
1788455993 22.22° C 49% 1018.6 hPa 0 mm - 762 W/m² -
1788455688 21.67° C 50% 1018.9 hPa 0 mm - 747 W/m² -
1788455383 21.11° C 53% 1018.8 hPa 0 mm - 733 W/m² -
1788455077 21.67° C 54% 1018.7 hPa 0 mm - 714 W/m² -
1788454777 21.67° C 54% 1018.8 hPa 0 mm - 696 W/m² -
1788454471 21.11° C 53% 1019 hPa 0 mm - 679 W/m² -
1788454171 20.56° C 54% 1018.9 hPa 0 mm - 663 W/m² -
1788453865 20° C 57% 1019 hPa 0 mm - 645 W/m² -
1788453560 20° C 56% 1018.8 hPa 0 mm - 628 W/m² -
1788453256 20° C 58% 1018.8 hPa 0 mm - 608 W/m² -
1788452952 20° C 58% 1018.6 hPa 0 mm - 592 W/m² -
1788452648 20° C 59% 1018.8 hPa 0 mm - 571 W/m² -

* Rain latest hour (hover to see other rain measurements)
** Current wind speed in m/s (hover to see current wind gust speed)